Starlink 11274

operational
NORAD ID: 61001 Int'l Des: 2024-158 Owner: SPXS Country: US Constellation: starlink
LEOCIRCULAR

About Starlink 11274

Description loading...

Live Position

Loading 3D Globe...

Upcoming Passes

Altitude History

Altitude vs Time

uPlot chart will show altitude changes over time

Two-Line Element Set

1 61001U 24158M 25257.50189950 -.00001012 00000-0 -35165-5 0 9997
2 61001 53.1588 69.7073 0000126 232.4080 127.6927 15.69683520 59913
Epoch: Sep 14, 2025 • Age: 16 hours

Current Status

Altitude 360.5 km
Velocity 7.69 km/s
Sub-Earth Point 1.41°N, 170.25°W
Launch Date Sep 5, 2024
Age 1 years
Type internet

Technical Details

Classification Payload
Mass 960.00 kg
Dry Mass 910.00 kg
Total Mass 960.00 kg
Length 0.30 m
Diameter 4.10 m
Span 29.00 m
Shape Box + pan
Manufacturer SPXS
Bus Type Starlink V2MD
Phase Status In Orbit
Owner/State SPXS/US

Large Constellations

Loading constellations...